Вернуться в каталог

BLOCK DM-SL R/B

АктивенGTO
NORAD 26762·ROCKET BODY· XX

Запущен May 8, 2001 с Sea Launch Platform

Loading…

TLE

СвежийSource: Space-Track

Эпоха: Sep 14, 2026, 21:02 UTC

1 26762U 01018B   26257.87658721 -.00000066  00000-0  50214-2 0  9996
2 26762   1.3147  26.1312 7052790 180.7622 199.4933  2.23851915207443

Отслеживайте BLOCK DM-SL R/B в реальном времени с AllMySat

Download on the App Store